Location: Pescara
(42.4670°N, 14.2170°E)
Time: 02:13:16
(UTC+02:00)

ISS - Pass Details

Date: 19 May 2021
Orbit: 417 x 422 km, 51.6° (Epoch: 14 June)

Event Time Altitude Azimuth Distance (km) Brightness Sun altitude
Rises 22:05:32 0° 275° (W) 2,360 0.8 -15.8°
Reaches altitude 10° 22:07:56 10° 291° (WNW) 1,499 0.0 -16.1°
Maximum altitude 22:10:39 22° 345° (NNW) 972 -1.1 -16.4°
Drops below altitude 10° 22:13:22 10° 39° (NE) 1,504 -0.8 -16.8°
Sets 22:15:47 0° 55° (NE) 2,371 0.0 -17.0°
